Weather History for KO22 - May, 2014

Change the Weather History Date:

Monday, May 12, 2014

  Actual Average (KMOD) Record (KMOD)
Temperature  
Mean Temperature 58 °F -  
Max Temperature 78 °F 82 °F 98 °F (1976)
Min Temperature 39 °F 54 °F 42 °F (1933)
Degree Days  
Heating Degree Days 6 1  
Month to date heating degree days 19  
Since 1 July heating degree days 2153  
Cooling Degree Days 0 4  
Month to date cooling degree days 43  
Year to date cooling degree days 87  
Growing Degree Days 8 (Base 50)    
Moisture  
Dew Point 33 °F    
Average Humidity 41    
Maximum Humidity 66    
Minimum Humidity 17    
Precipitation  
Precipitation 0.00 in 0.02 in 1.67 in (1998)
Month to date precipitation 0.29  
Year to date precipitation 8.29  
Snow  
Snow 0.00 in - - ()
Month to date snowfall  
Since 1 July snowfall  
Snow Depth -    
Sea Level Pressure  
Sea Level Pressure 30.11 in    
Wind  
Wind Speed 2 mph (WSW)    
Max Wind Speed 8 mph    
Max Gust Speed -    
Visibility 10 miles    
Events      
T = Trace of Precipitation, MM = Missing Value Source: NWS Daily Summary

Daily Weather History Graph

Daily Weather History Graph

Search for Another Location

Airport or City:

Trip Planner

Search our weather history database for the weather conditions in past years. The results will help you decide how hot, cold, wet, or windy it might be!

Date:

Astronomy

May. 12, 2014 Rise Set
Actual Time 5:53 AM PDT 8:02 PM PDT
Civil Twilight 5:24 AM PDT 8:32 PM PDT
Nautical Twilight 4:48 AM PDT 9:08 PM PDT
Astronomical Twilight 4:09 AM PDT 9:47 PM PDT
Moon 6:07 PM PDT (5/12) 4:33 AM PDT (5/12)
Length of Visible Light 15h 07m
Length of Day
14h 08m
Waxing Gibbous, 95% of the Moon is Illuminated
May 12
Waxing Gibbous
May 14
Full
May 21
Last Quarter
May 28
New
Jun 5
First Quarter

Hourly Weather History & Observations

Time (PDT) Temp. Windchill Dew Point Humidity Pressure Visibility Wind Dir Wind Speed Gust Speed Precip Events Conditions
12:15 AM 46.4 °F 45.2 °F 32.0 °F 57% 30.07 in 10.0 mi NNE 3.5 mph - N/A   Clear
12:35 AM 44.6 °F - 32.0 °F 61% 30.07 in 10.0 mi Calm Calm - N/A   Clear
12:55 AM 44.6 °F - 32.0 °F 61% 30.07 in 10.0 mi Calm Calm - N/A   Clear
1:15 AM 44.6 °F - 30.2 °F 57% 30.08 in 10.0 mi Calm Calm - N/A   Clear
1:35 AM 44.6 °F - 30.2 °F 57% 30.08 in 10.0 mi Calm Calm - N/A   Clear
1:55 AM 44.6 °F - 30.2 °F 57% 30.07 in 10.0 mi Calm Calm - N/A   Clear
2:15 AM 42.8 °F - 30.2 °F 61% 30.07 in 10.0 mi Calm Calm - N/A   Clear
2:35 AM 41.0 °F - 30.2 °F 65% 30.07 in 10.0 mi Calm Calm - N/A   Clear
2:55 AM 41.0 °F - 28.4 °F 61% 30.08 in 10.0 mi Calm Calm - N/A   Clear
3:15 AM 41.0 °F - 30.2 °F 65% 30.08 in 10.0 mi Calm Calm - N/A   Clear
3:35 AM 41.0 °F - 28.4 °F 61% 30.08 in 10.0 mi Calm Calm - N/A   Clear
3:55 AM 41.0 °F - 28.4 °F 61% 30.08 in 10.0 mi Calm Calm - N/A   Clear
4:15 AM 41.0 °F - 28.4 °F 61% 30.08 in 10.0 mi Calm Calm - N/A   Clear
4:35 AM 41.0 °F - 28.4 °F 61% 30.08 in 10.0 mi Calm Calm - N/A   Clear
4:55 AM 41.0 °F - 28.4 °F 61% 30.08 in 10.0 mi Calm Calm - N/A   Clear
5:15 AM 39.2 °F - 28.4 °F 65% 30.08 in 10.0 mi Calm Calm - N/A   Clear
5:35 AM 39.2 °F - 28.4 °F 65% 30.09 in 10.0 mi Calm Calm - N/A   Clear
5:55 AM 39.2 °F - 28.4 °F 65% 30.09 in 10.0 mi Calm Calm - N/A   Clear
6:15 AM 41.0 °F - 28.4 °F 61% 30.10 in 10.0 mi Calm Calm - N/A   Clear
6:35 AM 42.8 °F - 32.0 °F 66% 30.10 in 10.0 mi Calm Calm - N/A   Clear
6:55 AM 48.2 °F - 32.0 °F 54% 30.10 in 10.0 mi Calm Calm - N/A   Clear
7:15 AM 51.8 °F - 33.8 °F 50% 30.11 in 10.0 mi Calm Calm - N/A   Clear
7:35 AM 57.2 °F - 35.6 °F 44% 30.12 in 10.0 mi Calm Calm - N/A   Clear
7:55 AM 60.8 °F - 35.6 °F 39% 30.13 in 10.0 mi Calm Calm - N/A   Clear
8:15 AM 64.4 °F - 32.0 °F 30% 30.13 in 10.0 mi Calm Calm - N/A   Clear
8:35 AM 66.2 °F - 28.4 °F 24% 30.13 in 10.0 mi SE 3.5 mph - N/A   Clear
9:15 AM 68.0 °F - 23.0 °F 18% 30.13 in 10.0 mi SE 4.6 mph - N/A   Clear
9:35 AM 68.0 °F - 24.8 °F 20% 30.14 in 10.0 mi SSE 5.8 mph - N/A   Clear
9:55 AM 69.8 °F - 24.8 °F 18% 30.14 in 10.0 mi Calm Calm - N/A   Clear
10:35 AM 71.6 °F - 26.6 °F 19% 30.14 in 10.0 mi Calm Calm - N/A   Clear
10:55 AM 71.6 °F - 28.4 °F 20% 30.14 in 10.0 mi SSW 8.1 mph - N/A   Clear
11:15 AM 73.4 °F - 30.2 °F 20% 30.14 in 10.0 mi SSW 3.5 mph - N/A   Clear
12:35 PM 75.2 °F - 28.4 °F 18% 30.15 in 10.0 mi SSW 5.8 mph - N/A   Clear
12:55 PM 77.0 °F - 30.2 °F 18% 30.15 in 10.0 mi SSW 6.9 mph - N/A   Clear
1:15 PM 77.0 °F - 28.4 °F 17% 30.15 in 10.0 mi Calm Calm - N/A   Clear
1:35 PM 77.0 °F - 32.0 °F 19% 30.15 in 10.0 mi South 5.8 mph - N/A   Clear
1:55 PM 77.0 °F - 32.0 °F 19% 30.14 in 10.0 mi South 4.6 mph - N/A   Clear
2:15 PM 78.8 °F - 33.8 °F 20% 30.14 in 10.0 mi Calm Calm - N/A   Clear
2:35 PM 77.0 °F - 35.6 °F 22% 30.13 in 10.0 mi West 4.6 mph - N/A   Clear
2:55 PM 77.0 °F - 32.0 °F 19% 30.13 in 10.0 mi Calm Calm - N/A   Clear
3:15 PM 78.8 °F - 33.8 °F 20% 30.12 in 10.0 mi Calm Calm - N/A   Clear
3:35 PM 77.0 °F - 33.8 °F 21% 30.11 in 10.0 mi NNW 3.5 mph - N/A   Clear
3:55 PM 78.8 °F - 35.6 °F 21% 30.11 in 10.0 mi SW 6.9 mph - N/A   Clear
4:15 PM 78.8 °F - 35.6 °F 21% 30.10 in 10.0 mi SW 5.8 mph - N/A   Clear
4:35 PM 78.8 °F - 35.6 °F 21% 30.10 in 10.0 mi West 6.9 mph - N/A   Clear
4:55 PM 78.8 °F - 35.6 °F 21% 30.10 in 10.0 mi SW 6.9 mph - N/A   Clear
5:15 PM 77.0 °F - 35.6 °F 22% 30.10 in 10.0 mi SW 3.5 mph - N/A   Clear
5:35 PM 77.0 °F - 35.6 °F 22% 30.09 in 10.0 mi WSW 5.8 mph - N/A   Clear
5:55 PM 77.0 °F - 35.6 °F 22% 30.09 in 10.0 mi WSW 8.1 mph - N/A   Clear
6:15 PM 75.2 °F - 35.6 °F 24% 30.09 in 10.0 mi West 8.1 mph - N/A   Clear
6:35 PM 75.2 °F - 35.6 °F 24% 30.09 in 10.0 mi WNW 8.1 mph - N/A   Clear
6:55 PM 73.4 °F - 35.6 °F 25% 30.09 in 10.0 mi West 5.8 mph - N/A   Clear
7:15 PM 71.6 °F - 35.6 °F 27% 30.09 in 10.0 mi West 4.6 mph - N/A   Clear
7:35 PM 66.2 °F - 35.6 °F 32% 30.09 in 10.0 mi WNW 3.5 mph - N/A   Clear
7:55 PM 64.4 °F - 37.4 °F 37% 30.09 in 10.0 mi NE 3.5 mph - N/A   Clear
8:15 PM 60.8 °F - 39.2 °F 45% 30.09 in 10.0 mi NE 3.5 mph - N/A   Clear
8:35 PM 59.0 °F - 39.2 °F 48% 30.10 in 10.0 mi Calm Calm - N/A   Clear
8:55 PM 57.2 °F - 41.0 °F 55% 30.10 in 10.0 mi Calm Calm - N/A   Clear
9:15 PM 57.2 °F - 41.0 °F 55% 30.11 in 10.0 mi Calm Calm - N/A   Clear
9:35 PM 55.4 °F - 41.0 °F 58% 30.11 in 10.0 mi ENE 3.5 mph - N/A   Clear
9:55 PM 55.4 °F - 41.0 °F 58% 30.11 in 10.0 mi NE 4.6 mph - N/A   Clear
10:15 PM 55.4 °F - 39.2 °F 54% 30.11 in 8.0 mi Calm Calm - N/A   Clear
10:35 PM 55.4 °F - 39.2 °F 54% 30.11 in 10.0 mi NE 3.5 mph - N/A   Clear
10:55 PM 53.6 °F - 39.2 °F 58% 30.11 in 10.0 mi NNE 4.6 mph - N/A   Clear
11:15 PM 53.6 °F - 39.2 °F 58% 30.11 in 9.0 mi NE 3.5 mph - N/A   Clear
11:35 PM 53.6 °F - 39.2 °F 58% 30.11 in 10.0 mi Calm Calm - N/A   Clear
11:55 PM 51.8 °F - 39.2 °F 62% 30.12 in 10.0 mi ENE 3.5 mph - N/A   Clear